This demonstration page uses our WeatherBlox Daily Observations layout. Learn more.

Left ArrowRight Arrow

38.88101, -77.10428

Hourly Observations for August 31, 2020

Temp ( °F °C ) Dew Point ( °F °C ) Humidity (%) Winds ( mph kmh ) Pressure ( in mb ) Visibility ( mi km ) Precip ( " mm )
12:52 am 00:52 Cloudy 72 22.2 60 15.6 66 66 SE 3 6 29.96 1015 10 16 0.00 0.00
1:52 am 01:52 Mostly Cloudy 74 23.3 60 15.6 62 62 ENE 3 6 29.96 1015 10 16 0.00 0.00
2:52 am 02:52 Cloudy 72 22.2 61 16.1 68 68 SSE 3 6 29.96 1015 10 16 0.00 0.00
3:52 am 03:52 Cloudy 71 21.7 63 17.2 76 76 SSE 7 11 29.97 1015 10 16 0.00 0.00
4:52 am 04:52 Cloudy 70 21.1 63 17.2 79 79 WSW 3 6 29.98 1015 10 16 0.00 0.00
5:52 am 05:52 Mostly Cloudy 70 21.1 64 17.8 82 82 E 5 7 29.98 1015 10 16 0.00 0.00
6:52 am 06:52 Mostly Cloudy 70 21.1 63 17.2 79 79 ESE 5 7 30.01 1016 10 16 0.00 0.00
7:52 am 07:52 Cloudy 72 22.2 64 17.8 76 76 ESE 3 6 30.02 1017 10 16 0.00 0.00
8:52 am 08:52 Cloudy 74 23.3 65 18.3 74 74 Calm 30.03 1017 10 16 0.00 0.00
9:52 am 09:52 Cloudy 75 23.9 67 19.4 76 76 Calm 30.04 1017 10 16 0.00 0.00
10:52 am 10:52 Cloudy 76 24.4 67 19.4 74 74 SSE 7 11 30.03 1017 10 16 0.00 0.00
11:52 am 11:52 Cloudy 77 25 68 20 74 74 SE 9 15 30.03 1017 10 16 0.00 0.00
12:52 pm 12:52 Cloudy with Light Rain 76 24.4 68 20 77 77 ESE 9 15 30.01 1016 10 16 0.00 0.00
1:52 pm 13:52 Cloudy with Light Rain 76 24.4 68 20 77 77 ESE 8 13 30.02 1017 10 16 0.01 0.25
2:52 pm 14:52 Cloudy with Light Rain 75 23.9 67 19.4 76 76 SE 8 13 30.01 1016 10 16 0.00 0.00
3:52 pm 15:52 Mostly Cloudy with Light Rain 73 22.8 66 18.9 79 79 SE 6 9 30.01 1016 10 16 0.03 0.76
4:52 pm 16:52 Cloudy with Rain 72 22.2 66 18.9 82 82 Calm 30.02 1017 5 8 0.06 1.52
5:29 pm 17:29 Cloudy with Rain 71 21.7 68 20 90 90 WSW 3 6 30.04 1017 3 4 0.05 1.27
5:33 pm 17:33 Cloudy with Heavy Rain 71 21.7 68 20 90 90 WSW 3 6 30.04 1017 2 2 0.08 2.03
5:45 pm 17:45 Cloudy with Rain 71 21.7 68 20 90 90 Calm 30.04 1017 3 4 0.15 3.81
5:49 pm 17:49 Cloudy with Rain 72 22 68 20 88 88 Calm 30.04 1017 3 5 0.16 4.06
5:52 pm 17:52 Cloudy with Light Rain 71 21.7 68 20 90 90 S 3 6 30.04 1017 4 6 0.17 4.32
5:55 pm 17:55 Cloudy with Rain 71 21.7 68 20 90 90 S 6 9 30.04 1017 4 6 0.00 0.00
6:03 pm 18:03 Cloudy with Light Rain 71 21.7 68 20 90 90 S 6 9 30.05 1018 5 8 0.01 0.25
6:06 pm 18:06 Cloudy with Rain 71 21.7 68 20 90 90 SSW 5 7 30.05 1018 5 8 0.02 0.51
6:11 pm 18:11 Cloudy with Rain 71 21.7 67 19.4 87 87 S 7 11 30.05 1018 5 8 0.03 0.76
6:17 pm 18:17 Cloudy with Heavy Rain 71 21.7 67 19.4 87 87 S 6 9 30.05 1018 3 4 0.05 1.27
6:25 pm 18:25 Cloudy with Rain 70 21.1 67 19.4 90 90 SSE 7 11 30.05 1018 3 5 0.08 2.03
6:52 pm 18:52 Cloudy with Light Rain 71 21.7 67 19.4 87 87 SE 3 6 30.04 1017 10 16 0.08 2.03
7:52 pm 19:52 Cloudy 71 21.7 67 19.4 87 87 ENE 7 11 30.03 1017 10 16 0.00 0.00
8:52 pm 20:52 Cloudy 71 21.7 67 19.4 87 87 Calm 30.04 1017 10 16 0.00 0.00
9:42 pm 21:42 Cloudy with Light Rain 70 21.1 66 18.9 87 87 WSW 6 9 30.08 1019 5 8 0.01 0.25
9:52 pm 21:52 Cloudy with Rain 69 20.6 63 17.2 81 81 VRB 5 7 30.08 1019 4 6 0.04 1.02
10:25 pm 22:25 Cloudy 69 20.6 64 17.8 84 84 ENE 7 11 30.08 1019 10 16 0.01 0.25
10:52 pm 22:52 Cloudy 69 20.6 63 17.2 81 81 ENE 9 15 30.07 1018 10 16 0.01 0.25
11:52 pm 23:52 Cloudy 69 20.6 65 18.3 87 87 NE 9 15 30.07 1018 10 16 0.00 0.00

Powered by AerisWeather